Regional Weather Roundup
Issued by NWS

Home | Current Version | Previous Version | Graphics & Text | Print | Product List | Glossary On
Versions: 1 2 3 4 5 6 7 8 9 10 11 12 13 14 15 16 17 18 19 20 21 22 23 24 25 26 27 28 29 30 31 32 33 34 35 36 37 38 39 40 41 42 43 44 45 46 47 48 49 50
000
ASUS45 KBOU 030610
RWRCO

WEATHER ROUNDUP FOR COLORADO
NATIONAL WEATHER SERVICE DENVER/BOULDER CO
1200 AM MDT FRI JUL 03 2015

NOTE: "FAIR" INDICATES FEW OR NO CLOUDS BELOW 12000 FEET WITH NO
SIGNIFICANT WEATHER AND/OR OBSTRUCTIONS TO VISIBILITY.

COZ001>005-013-030-031-030700-
...NORTHWEST COLORADO...

CITY           SKY/WX    TMP DP  RH WIND       PRES   REMARKS
CRAIG          PTCLDY    67  45  45 CALM      30.17S
HAYDEN         PTCLDY    66  43  42 SE12      30.21S
MEEKER         CLEAR     65  46  50 NE3       30.16S
MOUNT WERNER   NOT AVBL
STEAMBOAT SPGS PTCLDY    63  44  51 NW7       30.24R
WALDEN         PTCLDY    52  46  82 CALM      30.35F
$$

COZ006>008-011-030700-
...WEST CENTRAL VALLEYS...

CITY           SKY/WX    TMP DP  RH WIND       PRES   REMARKS
GRAND JUNCTION PTCLDY    79  47  32 E5        29.99R
MONTROSE       PTCLDY    76  49  38 SE10      30.12S
EAGLE          CLEAR     66  46  48 CALM      30.24S
RIFLE          PTCLDY    71  42  35 SE7       30.09R
DELTA          PTCLDY    74  53  47 N5        30.06S
NUCLA          PTCLDY    72  52  49 E7        30.16R
$$

COZ017>023-064>068-030700-
...SOUTHWEST COLORADO...

CITY           SKY/WX    TMP DP  RH WIND       PRES   REMARKS
DURANGO        MOCLDY    62  51  67 NE7       30.29R
CORTEZ         CLEAR     70  57  63 SW9       30.20S
PAGOSA SPRINGS MOCLDY    59  54  82 NE3       30.38R
TELLURIDE      PTCLDY    59  49  70 SE6       30.43R
WOLF CREEK PAS NOT AVBL
$$

COZ009-010-012-014-032>034-037-058>063-030700-
...CENTRAL COLORADO...

CITY           SKY/WX    TMP DP  RH WIND       PRES   REMARKS
ASPEN          CLEAR     58  43  57 SW9       30.30S
BUENA VISTA    PTCLDY    53  50  89 W6        30.39S
COPPER MTN     CLOUDY    54  41  62 S12       30.65F
BERTHOUD PASS  CLOUDY    43  34  70 S5        30.69F
COTTONWOOD PAS NOT AVBL
GUNNISON       PTCLDY    59  46  63 N5        30.36S
KREMMLING      PTCLDY    61  41  48 N6        30.34R
LEADVILLE      CLEAR     46  45  96 E5        30.50R
MONARCH PASS   PTCLDY    46  37  71 E5        30.74F
SALIDA         PTCLDY    55  50  84 W8        30.44S
SUNLIGHT       CLEAR     55  39  54 NE6       30.55F
WILKERSON PASS MOCLDY    48  41  76 CALM      30.64R
$$

COZ069>075-030700-
...SAN LUIS VALLEY/SANGRE DE CRISTO MOUNTAINS...

CITY           SKY/WX    TMP DP  RH WIND       PRES   REMARKS
ALAMOSA        CLOUDY    55  52  89 S3        30.34S
LA VETA PASS   CLOUDY    50  41  71 MISG      30.53R
SAGUACHE       MOCLDY    54  52  94 CALM      30.38S
$$

COZ035-036-038>040-030700-
...NORTHERN COLORADO FRONT RANGE...

CITY           SKY/WX    TMP DP  RH WIND       PRES   REMARKS
DENVER INTL AP MOCLDY    62  59  90 SW6       30.23F
DMNS CITY PARK   N/A     62  60  95 E9        30.23F
AURORA         PTCLDY    60  60  98 SW3       30.26S
FRONT RANGE AP CLEAR     61  59  94 W5        30.25F
ERIE MUNI ARPT PTCLDY    62  60  93 S3        30.20F
BOULDER MUN AP PTCLDY    63  57  82 SW3       30.20F
CENTENNIAL     MOCLDY    61  58  90 SW6       30.26S
BROOMFIELD     PTCLDY    61  57  88 CALM      30.23F
FORT COLLINS   MOCLDY    63  57  82 SE6       30.20F
LONGMONT       MOCLDY    63  59  87 CALM      30.20F
$$

COZ041-046-047-076>085-087-088-030700-
...PIKES PEAK/PALMER DIVIDE AND SOUTHERN FOOTHILLS...

CITY           SKY/WX    TMP DP  RH WIND       PRES   REMARKS
COLO. SPRINGS  MOCLDY    62  52  69 N12       30.30R
A. F. ACADEMY  PTCLDY    58  54  86 N5        30.31S
ELLICOTT         N/A    N/A N/A N/A E17G28    30.26F
FALCON         CLOUDY    56  54  92 NE5       30.34S
FORT CARSON    CLOUDY    62  56  80 NW6       30.26F
LIMON          CLOUDY    64  57  78 W7        30.24R
MONUMENT HILL  NOT AVBL
TRINIDAD       CLOUDY    62  58  86 W6        30.24R
$$

COZ042>045-048>051-090-091-030700-
...NORTHEAST COLORADO...

CITY           SKY/WX    TMP DP  RH WIND       PRES   REMARKS
GREELEY ARPT   MOCLDY    63  61  94 SW7       30.19F
AKRON          MOCLDY    67  57  70 SE7       30.18S
BURLINGTON     MOCLDY    66  55  67 CALM      30.14S
WRAY           PTCLDY    65  57  76 CALM      30.11S
STERLING       MOCLDY    68  55  64 CALM        N/A
HOLYOKE        CLEAR     63  55  77 E3        30.12S
FORT MORGAN    MOCLDY    61  55  82 W8        30.18R
$$

COZ086-089-092>099-030700-
...SOUTHEAST COLORADO...

CITY           SKY/WX    TMP DP  RH WIND       PRES   REMARKS
PUEBLO         MOCLDY    70  54  56 N18       30.18R
LA JUNTA       MOCLDY    71  61  70 NW8       30.13S
LAMAR          PTCLDY    68  62  81 SW3       30.08R
SPRINGFIELD      N/A     65  63  93 W3        30.14S
$$



USA.gov is the U.S. government's official web portal to all federal, state and local government web resources and services.